TimeCST,TemperatureF,Dew PointF,Humidity,Sea Level PressureIn,VisibilityMPH,Wind Direction,Wind SpeedMPH,Gust SpeedMPH,PrecipitationIn,Events,Conditions,WindDirDegrees,DateUTC
12:56 AM,39.0,32.0,76,30.35,10.0,NNE,6.9,-,N/A,,Clear,30,2012-12-31 06:56:00
1:56 AM,39.9,32.0,73,30.33,10.0,NE,6.9,-,N/A,,Clear,40,2012-12-31 07:56:00
2:56 AM,41.0,33.1,73,30.32,10.0,NE,8.1,-,N/A,,Clear,50,2012-12-31 08:56:00
3:56 AM,41.0,34.0,76,30.31,10.0,NE,8.1,-,N/A,,Clear,40,2012-12-31 09:56:00
4:56 AM,39.9,34.0,79,30.33,10.0,North,5.8,-,N/A,,Clear,10,2012-12-31 10:56:00
5:56 AM,39.9,34.0,79,30.30,10.0,NE,5.8,-,N/A,,Mostly Cloudy,40,2012-12-31 11:56:00
6:56 AM,42.1,36.0,79,30.30,10.0,NE,8.1,-,N/A,,Mostly Cloudy,40,2012-12-31 12:56:00
7:56 AM,45.0,39.0,80,30.32,10.0,NNE,8.1,-,N/A,,Mostly Cloudy,30,2012-12-31 13:56:00
8:56 AM,50.0,42.1,74,30.33,10.0,NNE,6.9,-,N/A,,Mostly Cloudy,30,2012-12-31 14:56:00
9:56 AM,54.0,45.0,72,30.32,10.0,NNE,9.2,-,N/A,,Mostly Cloudy,20,2012-12-31 15:56:00
10:56 AM,55.9,46.9,72,30.32,10.0,North,8.1,-,N/A,,Mostly Cloudy,10,2012-12-31 16:56:00
11:09 AM,55.4,46.4,72,30.31,10.0,NNE,6.9,-,N/A,,Overcast,20,2012-12-31 17:09:00
11:56 AM,60.1,48.9,67,30.29,10.0,NE,8.1,-,N/A,,Mostly Cloudy,40,2012-12-31 17:56:00
12:56 PM,59.0,50.0,72,30.24,10.0,East,9.2,-,N/A,,Mostly Cloudy,80,2012-12-31 18:56:00
1:56 PM,60.1,50.0,69,30.22,10.0,NE,9.2,-,N/A,,Mostly Cloudy,50,2012-12-31 19:56:00
2:56 PM,60.1,51.1,72,30.20,10.0,East,8.1,-,N/A,,Overcast,80,2012-12-31 20:56:00
3:56 PM,59.0,51.1,75,30.20,10.0,ENE,6.9,-,N/A,,Overcast,60,2012-12-31 21:56:00
4:56 PM,57.9,52.0,81,30.19,10.0,NE,4.6,-,N/A,,Overcast,50,2012-12-31 22:56:00
5:56 PM,57.9,54.0,87,30.20,10.0,NNE,3.5,-,N/A,,Overcast,20,2012-12-31 23:56:00
6:56 PM,57.9,54.0,87,30.19,10.0,ENE,9.2,-,N/A,,Overcast,70,2013-01-01 00:56:00
7:56 PM,57.0,53.1,87,30.18,10.0,ENE,10.4,-,N/A,,Scattered Clouds,70,2013-01-01 01:56:00
8:56 PM,55.0,53.1,93,30.18,10.0,ENE,3.5,-,N/A,,Scattered Clouds,70,2013-01-01 02:56:00
9:56 PM,54.0,54.0,100,30.16,10.0,ENE,4.6,-,N/A,,Mostly Cloudy,70,2013-01-01 03:56:00
10:56 PM,55.9,55.0,97,30.14,7.0,East,4.6,-,N/A,,Mostly Cloudy,90,2013-01-01 04:56:00
11:56 PM,55.9,55.0,97,30.12,6.0,Calm,Calm,-,N/A,,Scattered Clouds,0,2013-01-01 05:56:00